Big Rock, Kentucky
Current Conditions -  °F | °C
As of 8:35 AM on Sunday 23 Nov 2014 (Local Time) from KI35 Reporting Station
Overcast Overcast  
Wind Chill: 54°   Ceiling: 6000
Heat Index: 54°   Visibility: 10mi
Dew Point: 37°   Wind: 5mph
Humidity: 54%   Direction: 90°E
Pressure: 30.04"   Gusts: 24mph
Location:  37.0427°N, 83.2166°W
Report Text: KI35 231335Z AUTO 09004G21KT 10SM OVC060 12/03 A3004 RMK AO1
Loading
Personal Weather Stations






























Interactive Weather Map New forecast layout! Learn more

10-Day Weather Forecast

Advertisements
Track Severe Weather on mobile